Starlink 32221

operational
NORAD ID: 60342 Int'l Des: 2024-136 Owner: SPXS Country: US Constellation: starlink
LEOCIRCULAR

关于 Starlink 32221

正在加载描述...

实时位置

正在加载3D地球...

即将过境

高度历史

Altitude vs Time

uPlot chart will show altitude changes over time

两行轨道根数

1 60342U 24136P 25260.98685872 .00003031 00000-0 11447-3 0 9996
2 60342 53.1587 157.8048 0001477 45.8311 314.2810 15.30184703 63224
Epoch: Sep 17, 2025 • Age: 22 hours

当前状态

高度 475.1 km
速度 7.63 km/s
星下点 2.57°N, 167.25°W
发射日期 Aug 2, 2024
运行时间 1.1 years
类型 internet

技术详情

分类 Payload
质量 730.00 kg
干质量 700.00 kg
总质量 730.00 kg
长度 0.30 m
直径 4.10 m
跨度 29.00 m
形状 Box + pan
制造商 SPXS
平台类型 Starlink V2M
阶段状态 In Orbit
所有者/国家 SPXS/US

大型星座

Loading constellations...